Location: Newark
(47.5833°N, 8.1500°E)
Time: 08:52:33
(UTC+00:00)

Tiros 1 despin weight - Pass Details

Date: 30 October 2020
Orbit: 593 x 642 km, 48.2° (Epoch: 26 November)

Event Time Altitude Azimuth Distance (km) Brightness Sun altitude
Rises 21:36:19 0° 193° (SSW) 2,875 - -51.2°
Reaches altitude 10° 21:39:36 10° 169° (SSE) 1,963 - -51.6°
Maximum altitude 21:41:57 14° 137° (SE) 1,702 - -51.8°
Drops below altitude 10° 21:44:18 10° 105° (ESE) 1,953 - -52.0°
Sets 21:47:33 0° 81° (E) 2,851 - -52.3°
